Lapse_Rate
6.3 6.3 6.3 6.4 6.5 6.6 6.9 7.8 7.7 7.9 7.9 8.1 8.3 8.0 8.0 7.9 8.7 8.8 8.5 8.4 8.0 7.9 8.0 7.8 7.7 7.3 7.0 7.0 6.9 6.9 7.0 7.1 7.2 7.0 7.0 6.7 6.7 6.6 6.5 6.5 6.6 6.6 6.4 6.3 6.2 6.1 6.2 6.0 6.2
6.5 6.3 6.2 6.4 6.6 6.6 7.6 7.7 7.7 8.1 8.3 8.0 8.3 8.2 8.3 7.8 8.1 8.3 8.4 8.5 8.1 7.8 7.8 7.5 7.5 7.4 7.3 7.3 7.3 7.2 7.2 7.2 7.2 6.9 6.8 6.9 7.0 6.8 6.5 6.4 6.4 6.5 6.5 6.4 6.3 6.2 6.3 6.3 6.2
6.4 6.4 6.1 6.4 6.7 7.2 7.7 7.7 7.7 7.7 7.7 7.8 8.2 8.2 8.3 8.3 8.5 8.2 8.5 8.4 8.0 7.7 7.6 7.4 7.7 7.5 7.5 7.4 7.4 7.4 7.3 7.2 7.2 7.3 7.1 7.1 7.2 7.0 6.8 6.5 6.4 6.3 6.4 6.6 6.6 6.9 6.8 6.6 6.4
6.5 6.4 6.2 6.3 7.2 8.0 7.9 7.9 7.5 7.6 7.6 7.8 8.0 7.8 7.9 8.3 8.3 8.3 8.4 8.1 7.8 7.4 7.4 7.2 7.4 7.3 7.6 7.6 7.3 7.3 7.4 7.4 7.4 7.5 7.4 7.3 7.2 7.1 7.0 6.8 6.7 6.7 6.8 7.1 7.1 7.0 7.1 7.0 6.7
6.5 6.4 6.2 6.7 7.6 7.9 8.1 8.0 7.6 7.7 7.5 7.5 7.6 7.7 7.9 8.0 8.3 8.2 7.8 7.8 7.6 7.4 7.4 7.6 7.2 7.2 7.2 7.6 7.5 7.4 7.4 7.4 7.5 7.7 7.8 7.6 7.4 7.3 7.3 7.3 7.2 7.2 7.2 7.1 7.1 7.1 7.1 7.2 6.8
6.4 6.3 6.3 6.7 7.7 7.9 8.3 7.9 7.7 7.4 7.6 7.8 7.9 7.8 7.8 8.0 8.0 7.9 7.9 7.9 7.6 7.5 7.3 7.8 7.4 7.4 7.3 7.6 7.4 7.4 7.5 7.5 7.6 7.7 7.9 7.7 7.7 7.6 7.6 7.6 7.4 7.6 7.5 7.4 7.3 7.0 6.9 7.0 7.1
6.6 6.3 6.5 7.1 7.7 7.9 8.2 8.0 7.7 7.6 7.8 7.8 7.8 7.8 7.8 7.9 7.8 7.7 7.9 8.0 7.7 7.7 7.2 7.4 7.6 7.5 7.4 7.8 7.6 7.5 7.5 7.4 7.5 7.5 7.6 7.7 7.8 7.8 7.8 7.9 7.6 7.9 7.7 7.6 7.5 7.4 7.0 7.0 7.0
6.4 6.1 6.3 7.2 7.7 7.8 8.0 8.2 7.9 7.6 7.6 7.5 7.7 7.5 7.8 8.0 8.1 8.0 8.0 7.8 7.7 7.4 7.5 7.5 7.6 7.7 7.8 8.0 7.9 7.6 7.5 7.4 7.5 7.6 7.8 7.9 7.9 8.0 8.0 7.9 7.7 8.1 7.9 7.7 7.5 7.4 7.1 7.1 7.0
6.4 5.8 5.9 7.1 7.6 8.0 8.2 8.3 8.3 8.0 7.8 7.8 7.5 7.6 7.8 7.7 7.9 7.9 7.9 7.9 7.6 7.4 7.6 7.6 7.9 7.9 8.1 8.1 8.3 8.0 7.7 7.6 7.5 7.6 7.9 7.8 8.0 8.0 8.0 7.9 7.8 8.0 8.1 7.9 7.6 7.5 7.2 7.2 7.2
6.2 6.2 6.5 7.7 8.0 8.2 8.3 8.7 8.5 8.2 7.9 7.9 7.8 7.6 7.6 7.6 7.8 7.8 8.0 8.0 7.7 7.7 7.9 8.0 8.0 8.2 8.3 8.3 8.6 8.3 8.0 7.7 7.8 7.9 7.7 7.6 7.9 7.9 7.9 8.0 8.0 8.2 8.0 8.0 7.6 7.7 7.3 7.3 7.2
6.5 6.5 7.4 7.9 8.1 8.3 8.9 8.3 8.5 8.2 8.4 8.2 7.8 8.0 7.9 7.8 8.1 8.3 8.2 8.3 8.4 8.3 8.4 8.4 8.1 8.3 8.0 8.3 8.6 8.4 8.0 7.9 8.0 7.8 7.7 7.6 7.8 7.9 7.9 8.0 8.2 8.3 8.0 7.9 7.6 7.8 7.3 7.2 7.2
6.9 6.9 7.2 7.9 8.0 8.0 8.5 8.7 8.0 8.2 8.4 8.6 8.1 7.9 8.3 8.2 8.3 8.3 8.2 8.3 8.4 8.4 8.3 8.5 8.3 7.9 8.5 8.4 8.6 8.5 8.2 7.9 7.9 7.8 7.7 7.5 7.8 7.9 8.0 7.9 8.1 8.1 7.9 7.8 7.8 7.7 7.2 7.1 7.1
7.0 7.1 7.3 8.0 8.0 8.2 8.3 8.0 8.1 7.9 8.0 8.1 8.1 8.3 8.3 8.3 8.2 8.3 8.3 8.2 8.2 8.3 8.4 8.4 8.4 8.3 8.5 8.4 8.7 8.5 8.3 8.0 8.1 7.9 7.8 7.6 7.6 7.8 7.8 7.8 8.0 8.0 7.7 7.8 7.6 7.5 7.1 7.1 6.9
7.3 6.9 6.9 7.2 7.6 7.7 7.4 7.7 7.9 7.9 8.4 8.6 8.5 8.3 8.3 8.2 8.3 8.4 8.2 8.2 8.1 8.3 8.4 8.5 8.4 8.5 8.4 8.6 8.6 8.5 8.4 8.2 8.0 8.0 7.9 7.7 7.6 7.7 7.8 7.8 7.7 7.7 7.6 7.5 7.4 7.2 6.9 7.0 6.8
7.0 6.6 6.8 7.1 7.3 7.5 7.6 7.0 7.4 7.9 8.4 8.4 8.8 8.4 8.4 8.7 8.9 8.5 8.4 8.4 8.1 7.9 8.4 8.3 8.3 8.4 8.2 8.5 8.6 8.9 8.4 8.3 8.2 8.2 7.9 7.6 7.5 7.4 7.8 7.9 7.9 7.3 7.0 7.2 7.2 7.0 6.9 7.0 6.7
6.8 6.5 6.2 6.8 6.7 7.1 7.5 6.4 7.4 8.1 8.0 8.5 8.6 8.6 8.7 8.8 8.5 8.2 8.2 7.9 7.8 7.9 8.0 8.1 8.3 8.3 8.3 8.7 9.0 8.8 8.4 8.3 8.4 8.4 8.0 7.8 7.5 7.8 7.9 7.8 7.6 7.1 7.0 6.9 6.8 6.6 6.8 6.7 6.6
6.2 6.2 6.1 6.3 7.0 6.8 7.0 6.4 7.4 7.9 8.2 8.6 8.8 8.6 8.4 7.9 7.8 7.6 7.6 7.8 7.8 8.0 8.0 8.2 8.3 8.4 8.6 8.7 8.5 8.9 8.4 8.4 8.6 8.5 8.4 8.1 8.0 7.9 7.6 7.4 7.2 6.8 6.6 6.7 6.7 6.8 6.7 6.6 6.5
5.2 5.8 5.9 5.8 6.0 6.7 7.0 6.9 7.3 7.3 7.3 7.9 8.4 8.4 7.9 7.7 7.4 7.4 7.5 7.8 7.8 8.1 8.0 8.3 8.2 8.5 8.9 8.6 8.6 8.8 8.5 8.5 8.5 8.4 8.4 8.1 7.9 7.9 7.5 7.6 6.9 6.6 6.7 6.8 6.6 6.6 6.5 6.3 5.8
5.8 5.8 5.8 5.9 6.2 7.0 7.2 7.1 7.5 7.5 7.3 7.1 7.1 7.2 7.4 7.4 7.2 7.3 7.5 7.7 7.7 7.9 7.7 8.0 8.2 8.8 8.4 8.4 8.6 8.5 8.4 8.5 8.6 8.6 8.5 8.1 7.9 7.5 7.4 6.8 6.6 6.9 6.7 6.4 6.2 6.2 6.1 5.9 5.7
5.5 5.5 5.5 5.8 6.7 6.4 6.7 6.3 6.2 6.3 6.7 7.0 7.0 7.0 7.2 7.4 7.2 7.3 7.6 7.8 7.7 7.8 7.5 7.9 8.4 8.8 8.6 8.4 8.5 8.5 8.4 8.7 8.7 8.8 8.4 8.2 7.8 7.3 7.1 6.8 6.8 6.6 6.5 6.4 6.3 6.1 6.1 6.0 5.8
5.0 5.1 5.3 5.5 6.3 6.5 6.1 5.9 6.1 6.4 6.4 6.8 7.0 7.1 7.4 7.0 7.3 7.7 7.8 7.6 7.6 7.7 7.9 8.0 8.5 8.8 8.6 8.5 8.2 8.2 8.6 8.7 8.6 8.4 8.2 7.9 7.2 7.2 6.8 6.6 6.4 6.4 6.4 6.4 6.5 6.5 6.3 6.1 6.0
4.7 4.9 5.2 5.5 5.7 5.4 6.4 4.9 5.6 6.2 6.5 6.4 6.9 7.3 7.0 7.1 7.5 7.7 7.6 7.5 7.5 7.6 7.9 7.9 8.6 8.6 8.8 8.5 8.3 8.4 8.6 8.5 8.4 8.2 7.8 7.3 7.2 7.0 6.5 6.4 6.4 6.3 6.4 6.5 6.7 6.5 6.4 6.3 6.3
4.6 4.9 5.1 5.4 5.5 5.7 5.6 6.0 5.0 6.3 6.5 7.1 7.2 7.2 7.4 7.8 7.7 7.6 7.5 7.2 7.6 7.7 7.9 8.2 8.5 8.6 8.5 8.3 8.4 8.7 8.4 8.4 8.2 7.9 7.4 7.2 7.1 6.9 6.8 6.5 6.2 6.1 6.2 6.3 6.6 6.4 6.4 6.5 6.4
5.1 5.1 5.2 5.3 5.5 4.8 5.0 5.9 5.4 6.1 7.0 7.3 7.7 7.4 7.6 7.7 7.5 7.3 7.3 7.4 7.7 7.9 8.0 8.5 8.7 8.2 8.2 8.4 8.7 8.6 8.5 8.3 8.2 7.6 7.1 7.1 7.2 7.0 6.6 6.2 6.0 5.9 5.9 6.1 6.1 6.1 6.1 6.2 6.2
5.0 5.0 4.7 4.9 4.6 4.5 5.8 5.6 5.5 6.6 6.3 6.7 7.3 7.3 7.6 7.7 7.5 7.3 7.2 7.5 7.5 7.7 8.1 8.6 8.4 8.3 8.3 8.5 8.7 8.4 8.3 8.2 7.7 7.3 7.2 7.3 7.1 6.7 6.2 5.9 5.8 5.9 6.0 6.1 6.0 6.2 6.1 6.1 6.2
5.4 5.4 4.9 4.4 4.1 5.1 5.5 5.1 5.0 6.0 7.3 6.7 6.7 7.6 7.7 7.6 7.4 7.2 7.4 7.3 7.7 7.9 8.3 8.4 8.4 8.5 8.5 8.6 8.4 8.2 8.1 7.8 7.7 7.3 7.2 7.0 6.6 6.3 6.1 6.0 6.0 5.9 6.0 6.0 6.0 5.9 6.1 6.0 6.0
5.8 5.4 5.7 5.5 5.5 5.0 5.3 5.3 5.3 5.9 7.0 7.8 7.4 8.2 8.2 7.8 7.5 7.4 7.4 7.5 7.9 7.9 8.1 8.2 8.4 8.6 8.4 8.3 8.0 8.0 7.7 7.5 7.3 7.1 6.9 6.7 6.4 6.1 6.0 6.0 5.9 5.9 6.1 6.1 6.2 6.1 6.0 5.9 6.0
6.4 6.7 6.4 5.7 5.1 4.2 4.6 4.9 5.2 6.2 6.7 7.9 8.1 8.5 7.8 7.7 8.0 7.8 7.5 7.6 7.6 7.7 7.9 8.0 8.4 8.4 8.2 8.0 7.8 7.6 7.4 7.1 7.1 6.9 6.7 6.3 6.1 6.0 5.9 5.9 5.9 5.9 6.0 6.1 6.1 6.0 6.0 6.0 5.9
7.0 6.8 6.3 6.3 5.9 4.0 4.1 4.6 5.5 5.9 6.8 7.0 7.7 8.2 7.8 8.4 8.4 8.0 7.9 7.7 7.7 7.7 7.9 8.1 8.3 8.1 8.0 7.8 7.6 7.4 7.1 7.0 7.0 6.7 6.4 6.0 6.0 6.0 6.0 5.8 5.8 5.8 6.0 6.2 6.0 6.0 6.0 6.0 5.9
7.2 6.4 6.5 6.0 5.2 4.9 4.6 4.4 5.8 5.8 6.5 7.3 8.5 8.2 7.6 8.5 8.3 8.2 7.7 7.8 7.8 7.8 8.0 8.1 8.1 7.9 7.7 7.6 7.5 7.1 7.0 7.1 6.8 6.4 6.1 6.2 6.0 6.1 6.1 5.8 5.8 5.9 5.9 6.2 6.2 6.0 5.9 5.8 5.8
Wind_Speed
7 4 1 2 3 4 4 6 3 5 1 4 3 8 5 2 6 5 4 12 9 12 17 24 25 24 23 22 21 19 20 20 20 19 18 18 17 16 15 13 11 9 8 7 6 5 4 2 0
6 3 2 2 4 1 5 5 7 6 3 6 6 5 4 1 2 1 4 7 9 15 16 20 25 26 25 25 24 23 22 22 22 22 21 19 18 16 15 14 13 10 8 7 6 5 4 3 3
6 2 2 4 4 6 5 6 2 6 8 3 2 4 8 3 2 4 1 12 12 14 17 20 27 27 27 26 25 24 23 22 22 22 21 20 19 18 16 15 14 12 10 9 8 6 5 5 5
3 2 2 2 9 6 5 3 4 8 8 6 1 6 2 2 5 7 10 13 14 13 16 23 29 28 28 26 24 23 23 22 22 21 21 21 20 18 18 17 16 14 13 11 9 7 7 7 7
2 3 2 3 6 5 4 5 3 10 5 3 2 2 0 2 2 9 12 13 15 12 13 21 29 27 24 24 24 23 24 24 23 22 21 21 20 19 18 17 17 16 14 12 10 9 8 9 9
2 2 1 6 5 4 6 5 5 4 7 4 4 5 3 1 6 8 10 11 12 16 14 16 22 24 26 26 26 25 24 24 24 23 21 20 19 19 19 17 16 15 13 12 12 11 8 8 8
6 3 4 3 3 3 4 4 2 4 6 5 8 5 3 3 6 5 10 8 9 9 12 11 16 20 24 26 25 24 25 25 24 24 23 22 20 19 18 17 15 14 13 13 12 11 9 9 10
4 4 4 4 4 4 4 1 2 6 8 7 4 2 4 6 9 6 4 3 2 2 7 10 11 16 17 19 26 26 26 26 25 24 23 22 21 20 19 17 15 14 13 13 13 13 11 10 10
5 3 5 6 6 5 6 5 2 5 4 6 6 4 7 7 7 6 2 1 3 5 7 6 10 12 13 16 19 24 25 24 24 23 23 21 15 16 16 15 15 16 14 14 14 14 11 11 11
5 5 10 7 10 3 6 9 8 4 3 5 5 5 1 2 5 9 8 10 9 11 10 10 11 14 13 10 13 16 16 18 18 18 17 16 13 14 14 15 18 17 17 16 15 14 13 12 9
7 9 18 8 9 3 6 8 5 8 8 7 3 11 8 2 8 9 10 10 14 20 10 15 15 14 14 13 9 6 9 10 12 15 14 13 11 11 11 8 10 11 14 8 12 12 9 8 7
4 13 15 16 11 4 14 6 10 14 12 16 14 7 8 11 10 9 9 11 8 9 16 15 17 14 14 9 9 10 8 8 8 10 14 8 6 6 5 5 6 6 8 5 7 4 7 7 8
15 7 9 18 15 10 10 17 14 19 14 13 15 15 12 11 11 9 9 8 9 7 10 14 13 14 14 13 9 9 11 10 10 7 13 13 8 7 6 5 4 5 7 5 4 4 4 5 5
2 11 15 11 10 6 12 20 15 14 19 14 11 11 11 11 12 7 8 9 9 10 9 10 13 16 13 14 14 11 9 9 8 7 9 15 8 6 6 6 6 4 7 7 5 6 6 5 4
4 7 10 10 4 7 1 23 24 18 15 16 18 17 10 10 9 11 9 9 10 8 10 10 16 11 13 17 14 9 8 8 9 8 11 14 11 7 7 6 4 6 7 5 4 4 4 4 4
4 4 14 13 11 6 7 29 11 11 14 19 12 9 9 12 9 10 9 10 12 8 10 9 10 14 15 14 11 9 8 8 8 8 7 12 13 11 6 5 5 4 4 4 4 4 4 4 4
5 16 17 9 5 8 16 30 14 15 12 16 13 14 14 15 11 10 12 13 12 12 12 10 10 10 13 9 7 7 7 7 7 7 7 11 10 10 7 5 5 5 4 4 4 3 3 3 4
10 11 11 11 4 11 15 28 12 10 13 17 17 17 19 19 18 17 18 16 10 10 8 7 6 8 8 6 5 4 5 4 6 7 7 10 8 8 7 5 5 5 4 4 3 4 4 3 4
4 9 3 8 10 14 19 24 20 15 11 17 18 18 18 11 11 14 14 12 9 9 9 9 8 7 8 5 5 4 6 4 3 4 8 8 7 8 7 5 5 5 6 7 7 3 4 4 2
6 5 3 7 8 4 10 17 10 10 13 15 18 17 16 14 10 16 12 9 11 9 9 8 7 9 6 4 3 3 4 3 3 4 6 8 8 9 8 6 5 6 4 5 4 4 2 3 5
6 11 8 5 9 17 12 18 12 12 8 12 17 10 10 9 14 15 10 11 8 9 8 7 8 9 8 9 6 4 4 4 3 3 3 3 6 6 6 6 5 5 4 4 4 4 5 3 2
11 4 5 8 5 10 2 17 18 21 23 20 19 18 9 11 14 10 11 9 9 8 6 6 8 9 8 8 8 11 4 4 2 3 3 4 5 6 5 6 5 5 3 4 4 4 3 3 3
11 10 9 11 6 4 7 5 23 8 22 17 15 17 13 18 11 13 11 11 6 7 6 7 7 8 9 7 10 6 5 3 3 3 6 4 4 6 6 6 4 4 4 4 5 4 5 3 3
1 4 7 7 3 6 8 9 24 9 20 19 21 11 16 10 10 10 7 4 5 6 7 8 10 7 8 7 8 8 8 6 5 4 4 4 3 3 4 5 5 4 4 4 4 4 5 5 3
3 4 1 1 3 10 12 9 22 6 3 5 8 9 11 11 9 7 7 7 8 10 8 7 10 8 7 8 7 7 8 8 8 6 4 5 3 2 4 5 5 3 4 4 4 4 5 5 4
5 8 4 6 4 7 6 13 16 12 23 21 19 13 10 10 8 9 9 8 9 9 10 8 10 9 8 8 7 6 8 5 5 5 4 4 3 3 4 4 4 4 4 4 4 3 3 4 4
2 4 7 3 3 2 6 10 18 20 15 14 10 9 10 9 9 9 7 7 10 10 8 10 10 9 9 9 8 7 6 7 6 6 4 3 3 3 5 5 4 4 4 4 4 3 4 4 4
6 4 3 1 5 5 6 8 12 6 19 20 15 9 11 10 9 9 10 11 9 9 8 8 9 12 10 9 7 6 7 6 6 5 6 5 4 4 5 4 4 4 3 4 4 3 3 5 3
1 3 4 3 5 4 3 6 7 12 9 5 9 11 12 10 8 11 11 11 11 10 10 9 10 11 9 8 6 7 6 6 6 5 5 6 5 6 5 5 4 3 4 3 3 3 4 4 4
4 4 3 6 7 11 1 8 8 3 7 7 9 10 9 0 6 10 13 12 12 12 11 10 8 10 8 7 7 6 6 6 5 5 5 5 5 4 5 4 3 3 4 3 4 4 4 5 5
Wind_Direction
154 180 219 49 82 71 263 259 255 268 234 230 209 126 190 175 168 211 315 167 130 139 163 168 172 173 173 174 172 169 163 157 154 154 154 155 155 156 156 156 156 157 159 160 166 168 170 176 189
133 148 359 88 116 140 259 248 253 248 270 263 186 106 105 275 168 231 105 172 150 149 163 168 173 176 176 178 176 173 170 166 163 162 163 163 164 165 165 166 167 172 179 183 191 199 202 217 234
153 136 126 151 181 189 213 218 350 302 287 271 296 115 147 202 124 187 233 143 139 157 166 171 176 181 180 182 179 175 174 170 171 170 169 170 172 173 175 178 178 181 189 198 207 217 225 235 242
146 43 345 163 227 251 211 258 327 295 281 197 84 70 81 192 175 182 143 147 149 164 171 177 181 184 184 183 181 178 176 176 178 178 178 176 178 181 182 187 187 189 194 205 216 224 236 245 250
48 80 228 226 251 263 247 252 229 271 277 27 39 99 243 340 25 137 156 157 161 173 180 184 187 185 183 185 186 183 180 181 182 183 183 183 182 186 192 195 194 196 198 203 218 231 244 255 257
97 108 201 237 232 244 260 266 311 311 267 298 119 119 191 312 155 180 165 171 178 176 181 190 189 188 187 188 190 189 185 186 186 188 187 189 189 192 195 202 206 203 207 211 215 228 235 254 258
134 103 237 249 258 261 248 212 250 281 291 285 145 115 227 218 229 165 181 178 186 177 177 179 190 196 197 192 194 193 191 191 190 191 190 190 194 198 199 206 211 215 213 220 227 232 233 239 247
130 113 273 244 220 243 240 230 184 44 330 312 120 164 213 226 204 170 169 50 43 237 199 184 183 192 202 204 198 196 197 196 195 195 193 194 197 199 201 211 213 220 225 224 235 234 231 237 241
139 119 239 238 181 232 322 19 151 334 5 354 351 164 215 203 148 120 111 166 191 206 208 202 187 206 199 206 209 202 202 201 201 199 198 195 196 203 201 206 214 222 228 231 233 237 231 235 244
165 170 225 217 224 270 317 310 335 325 25 300 326 292 347 294 161 173 191 217 212 218 212 191 199 203 200 203 205 206 203 206 204 201 198 195 188 191 194 204 218 225 231 234 233 231 230 237 237
194 214 231 236 228 249 278 285 297 306 294 207 261 293 319 258 220 208 210 207 214 216 195 201 205 206 198 200 197 200 201 203 204 199 189 188 185 192 200 198 219 225 233 229 237 229 217 217 224
213 224 237 253 241 250 262 276 281 274 263 297 294 266 289 275 273 213 231 240 216 199 214 207 206 201 202 198 201 202 201 201 204 199 186 179 182 186 186 197 211 213 214 205 210 203 202 219 233
243 223 242 251 252 253 272 261 256 264 266 269 279 276 263 257 252 253 248 258 249 229 220 217 201 200 198 199 200 199 203 202 199 190 189 186 188 188 181 199 203 213 207 200 197 194 199 216 228
185 216 246 264 264 252 267 271 265 263 270 273 259 255 258 246 248 261 261 255 258 252 236 209 203 204 189 202 206 205 201 197 192 189 189 187 186 177 190 212 218 210 205 198 188 199 204 214 209
255 283 272 232 247 250 345 269 253 249 267 263 262 264 250 255 251 236 248 254 244 246 248 203 205 187 195 202 207 199 196 189 191 188 179 183 184 187 192 203 216 214 200 190 196 194 180 217 225
218 203 242 253 216 234 169 256 258 229 236 255 266 262 267 272 269 279 263 251 261 249 252 230 184 191 196 200 199 195 189 187 189 181 173 184 189 181 177 186 214 229 186 187 183 183 192 207 201
242 240 232 255 199 202 201 259 248 255 255 266 273 276 281 282 285 279 265 259 253 238 240 224 182 193 195 193 185 185 171 181 176 163 176 185 184 176 190 174 193 185 179 176 178 186 161 185 223
218 229 237 234 200 215 246 258 244 272 278 274 271 273 272 270 272 272 270 268 262 248 243 232 174 181 166 143 128 116 138 152 165 174 177 173 177 167 166 174 183 183 158 185 181 187 200 196 215
13 251 0 265 220 212 237 258 260 252 242 253 257 258 262 256 264 271 266 264 269 246 220 211 187 165 146 149 147 150 175 151 149 164 166 162 155 157 160 177 184 166 185 195 192 173 202 223 211
266 275 272 295 296 252 278 276 281 262 255 249 255 261 264 272 278 274 272 260 251 244 217 217 186 158 158 126 114 139 140 123 137 151 162 163 166 165 179 179 184 182 194 192 199 209 226 229 183
220 241 255 253 326 300 306 285 279 263 246 260 267 253 250 237 259 270 274 250 250 230 208 189 155 138 136 129 116 82 77 74 84 83 93 150 162 172 167 180 183 203 199 208 207 201 194 180 205
253 199 240 237 215 261 209 286 276 276 272 261 260 260 252 243 251 254 260 267 230 218 139 146 133 140 133 143 130 148 139 136 140 139 148 177 175 171 165 174 188 223 200 201 190 182 170 143 164
251 253 257 230 236 262 242 308 270 217 263 253 245 256 252 251 249 254 251 242 225 150 142 133 133 125 131 143 137 133 117 110 121 121 134 131 134 152 166 182 195 199 192 203 178 164 178 176 150
141 205 220 227 126 250 209 192 276 241 245 249 245 230 248 251 248 250 265 181 150 126 134 139 133 128 124 128 122 134 133 129 117 116 133 132 131 145 177 171 177 191 184 185 192 194 186 182 174
165 80 178 168 201 230 192 188 238 254 241 231 235 240 247 250 258 223 198 178 154 153 140 134 133 127 119 115 121 131 133 137 138 147 145 145 142 174 192 171 174 177 187 194 185 183 193 187 191
179 163 177 185 187 226 153 225 237 230 261 265 266 273 258 261 247 230 200 172 154 147 141 131 134 125 120 117 118 117 129 126 129 141 143 156 171 173 161 167 164 181 187 191 190 187 190 186 201
194 164 201 12 235 233 233 274 280 274 273 283 273 275 272 257 235 209 155 151 143 142 137 133 128 127 123 122 121 123 124 128 142 146 141 158 153 160 156 147 155 182 180 179 174 187 192 186 194
167 191 83 279 213 232 253 256 236 224 237 265 278 295 286 260 208 162 150 142 135 133 125 124 128 133 133 127 131 136 141 135 141 146 150 157 144 135 138 142 169 173 180 181 175 184 203 194 206
239 194 204 190 204 231 293 256 203 216 255 261 288 294 295 273 171 151 140 133 133 131 134 134 132 133 134 136 131 136 141 137 150 148 153 150 141 144 148 172 172 178 159 172 184 210 180 165 157
249 210 198 213 230 238 313 259 316 234 345 326 311 316 302 113 134 145 138 135 141 140 139 142 144 139 149 139 133 139 136 146 153 151 152 147 146 151 166 169 152 213 187 172 200 191 172 164 169